,,,PA_Meas_PMT16A,,PR_Meas_QMR101_102,,RH_Meas_QMH101,,SR_Meas_QMS101,,TA_Meas_QMH101,,GenWind,,GenWind,
date,time,status,PA,status,PR,status,RH,status,SR,status,TA,status,DirAvg,status,SpdAvg,
2014-12-19, 00:00:04,VALID,1010.75,VALID,0,INVALID,126.351,VALID,0,VALID,24.7445,VALID,122,VALID,0,
2014-12-19, 00:01:04,VALID,1010.77,VALID,0,INVALID,127.892,VALID,0,VALID,24.7854,VALID,122,VALID,0,
2014-12-19, 00:02:04,VALID,1010.74,VALID,0,INVALID,128.768,VALID,0,VALID,24.764,VALID,122,VALID,0,
2014-12-19, 00:03:04,VALID,1010.74,VALID,0,INVALID,128.913,VALID,0,VALID,24.7659,VALID,122,VALID,0,
2014-12-19, 00:04:04,VALID,1010.76,VALID,0,INVALID,128.471,VALID,0,VALID,24.7464,VALID,122,VALID,0,
2014-12-19, 00:05:04,VALID,1010.77,VALID,0,INVALID,128.631,VALID,0,VALID,24.7445,VALID,122,VALID,0,
2014-12-19, 00:06:04,VALID,1010.77,VALID,0,INVALID,128.936,VALID,0,VALID,24.7464,VALID,122,VALID,0,
2014-12-19, 00:07:04,VALID,1010.79,VALID,0,INVALID,129.15,VALID,0,VALID,24.7464,VALID,122,VALID,0,
2014-12-19, 00:08:04,VALID,1010.75,VALID,0,INVALID,129.577,VALID,0,VALID,24.7464,VALID,122,VALID,0,
2014-12-19, 00:09:04,VALID,1010.78,VALID,0,INVALID,129.828,VALID,0,VALID,24.7464,VALID,122,VALID,0,
2014-12-19, 00:10:04,VALID,1010.75,VALID,0,INVALID,130.286,VALID,0,VALID,24.725,VALID,122,VALID,0,
2014-12-19, 00:11:04,VALID,1010.74,VALID,0,INVALID,130.423,VALID,0,VALID,24.725,VALID,122,VALID,0,
2014-12-19, 00:12:04,VALID,1010.76,VALID,0,INVALID,130.797,VALID,0,VALID,24.7269,VALID,122,VALID,0,
2014-12-19, 00:13:04,VALID,1010.74,VALID,0,INVALID,130.309,VALID,0,VALID,24.7055,VALID,122,VALID,0,
2014-12-19, 00:14:04,VALID,1010.72,VALID,0,INVALID,130.111,VALID,0,VALID,24.7269,VALID,122,VALID,0,
2014-12-19, 00:15:04,VALID,1010.73,VALID,0,INVALID,130.416,VALID,0,VALID,24.7074,VALID,122,VALID,0,
2014-12-19, 00:16:04,VALID,1010.71,VALID,0,INVALID,130.515,VALID,0,VALID,24.7055,VALID,122,VALID,0,
2014-12-19, 00:17:04,VALID,1010.68,VALID,0,INVALID,130.561,VALID,0,VALID,24.7074,VALID,122,VALID,0,
2014-12-19, 00:18:04,VALID,1010.64,VALID,0,INVALID,130.469,VALID,0,VALID,24.6879,VALID,122,VALID,0,
2014-12-19, 00:19:04,VALID,1010.59,VALID,0,INVALID,130.98,VALID,0,VALID,24.6879,VALID,122,VALID,0,
2014-12-19, 00:20:04,VALID,1010.56,VALID,0,INVALID,131.537,VALID,0,VALID,24.6666,VALID,122,VALID,0,
2014-12-19, 00:21:04,VALID,1010.51,VALID,0,INVALID,131.811,VALID,0,VALID,24.6684,VALID,122,VALID,0,
2014-12-19, 00:22:04,VALID,1010.49,VALID,0,INVALID,132.436,VALID,0,VALID,24.6684,VALID,122,VALID,0,
2014-12-19, 00:23:04,VALID,1010.46,VALID,0,INVALID,132.863,VALID,0,VALID,24.6684,VALID,122,VALID,0,
2014-12-19, 00:24:04,VALID,1010.41,VALID,0,INVALID,133.146,VALID,0,VALID,24.6489,VALID,122,VALID,0,
2014-12-19, 00:25:04,VALID,1010.43,VALID,0,INVALID,133.55,VALID,0,VALID,24.6489,VALID,122,VALID,0,
2014-12-19, 00:26:04,VALID,1010.4,VALID,0,INVALID,133.862,VALID,0,VALID,24.6684,VALID,122,VALID,0,
2014-12-19, 00:27:04,VALID,1010.39,VALID,0,INVALID,133.695,VALID,0,VALID,24.6489,VALID,122,VALID,0,
2014-12-19, 00:28:04,VALID,1010.38,VALID,0,INVALID,133.779,VALID,0,VALID,24.6489,VALID,122,VALID,0,
2014-12-19, 00:29:04,VALID,1010.37,VALID,0,INVALID,133.969,VALID,0,VALID,24.6489,VALID,122,VALID,0,
2014-12-19, 00:30:04,VALID,1010.37,VALID,0,INVALID,133.207,VALID,0,VALID,24.6294,VALID,122,VALID,0,
2014-12-19, 00:31:04,VALID,1010.34,VALID,0,INVALID,133.13,VALID,0,VALID,24.6099,VALID,122,VALID,0,
2014-12-19, 00:32:04,VALID,1010.37,VALID,0,INVALID,133.954,VALID,0,VALID,24.6081,VALID,122,VALID,0,
2014-12-19, 00:33:04,VALID,1010.37,VALID,0,INVALID,134.015,VALID,0,VALID,24.6276,VALID,122,VALID,0,
2014-12-19, 00:34:04,VALID,1010.36,VALID,0,INVALID,133.992,VALID,0.112112,VALID,24.6276,VALID,122,VALID,0,
2014-12-19, 00:35:04,VALID,1010.38,VALID,0,INVALID,133.458,VALID,0.112112,VALID,24.6081,VALID,122,VALID,0,
2014-12-19, 00:36:04,VALID,1010.38,VALID,0,INVALID,133.443,VALID,0.112112,VALID,24.5867,VALID,122,VALID,0,
2014-12-19, 00:37:04,VALID,1010.36,VALID,0,INVALID,133.382,VALID,0.112112,VALID,24.5886,VALID,122,VALID,0,
2014-12-19, 00:38:04,VALID,1010.36,VALID,0,INVALID,133.451,VALID,0.112112,VALID,24.5886,VALID,122,VALID,0,
2014-12-19, 00:39:04,VALID,1010.34,VALID,0,INVALID,133.542,VALID,0.112112,VALID,24.5886,VALID,122,VALID,0,
2014-12-19, 00:40:04,VALID,1010.34,VALID,0,INVALID,133.443,VALID,0.112112,VALID,24.5886,VALID,122,VALID,0,
2014-12-19, 00:41:04,VALID,1010.34,VALID,0,INVALID,133.336,VALID,0,VALID,24.5691,VALID,122,VALID,0,
2014-12-19, 00:42:04,VALID,1010.35,VALID,0,INVALID,133.275,VALID,0.112112,VALID,24.5691,VALID,122,VALID,0,
2014-12-19, 00:43:04,VALID,1010.35,VALID,0,INVALID,133.108,VALID,0.112112,VALID,24.5496,VALID,122,VALID,0,
2014-12-19, 00:44:04,VALID,1010.36,VALID,0,INVALID,132.97,VALID,0.112112,VALID,24.5496,VALID,122,VALID,0,
2014-12-19, 00:45:04,VALID,1010.38,VALID,0,INVALID,133.557,VALID,0.112112,VALID,24.5496,VALID,122,VALID,0,
2014-12-19, 00:46:04,VALID,1010.36,VALID,0,INVALID,133.756,VALID,0,VALID,24.532,VALID,122,VALID,0,
2014-12-19, 00:47:04,VALID,1010.38,VALID,0,INVALID,133.931,VALID,0,VALID,24.5515,VALID,122,VALID,0,
2014-12-19, 00:48:04,VALID,1010.38,VALID,0,INVALID,133.946,VALID,0,VALID,24.532,VALID,122,VALID,0,
2014-12-19, 00:49:04,VALID,1010.38,VALID,0,INVALID,133.893,VALID,0,VALID,24.532,VALID,122,VALID,0,
2014-12-19, 00:50:04,VALID,1010.35,VALID,0,INVALID,133.901,VALID,0,VALID,24.532,VALID,122,VALID,0,
2014-12-19, 00:51:04,VALID,1010.36,VALID,0,INVALID,133.687,VALID,0,VALID,24.5106,VALID,122,VALID,0,
2014-12-19, 00:52:04,VALID,1010.36,VALID,0,INVALID,133.733,VALID,0,VALID,24.532,VALID,122,VALID,0,
2014-12-19, 00:53:04,VALID,1010.35,VALID,0,INVALID,133.794,VALID,0,VALID,24.532,VALID,122,VALID,0,
2014-12-19, 00:54:04,VALID,1010.35,VALID,0,INVALID,133.062,VALID,0.112112,VALID,24.5106,VALID,122,VALID,0,
2014-12-19, 00:55:04,VALID,1010.37,VALID,0,INVALID,133.207,VALID,0.112112,VALID,24.4911,VALID,122,VALID,0,
2014-12-19, 00:56:04,VALID,1010.37,VALID,0,INVALID,133.413,VALID,0.112112,VALID,24.4911,VALID,122,VALID,0,
2014-12-19, 00:57:04,VALID,1010.39,VALID,0,INVALID,133.039,VALID,0,VALID,24.5125,VALID,122,VALID,0,
2014-12-19, 00:58:04,VALID,1010.41,VALID,0,INVALID,133.092,VALID,0,VALID,24.4735,VALID,122,VALID,0,
2014-12-19, 00:59:04,VALID,1010.43,VALID,0,INVALID,133.153,VALID,0,VALID,24.4735,VALID,122,VALID,0,
2014-12-19, 01:00:04,VALID,1010.43,VALID,0,INVALID,133.55,VALID,0,VALID,24.4735,VALID,122,VALID,0,
2014-12-19, 01:01:04,VALID,1010.44,VALID,0,INVALID,133.42,VALID,0,VALID,24.454,VALID,122,VALID,0,
2014-12-19, 01:02:04,VALID,1010.43,VALID,0,INVALID,133.458,VALID,0,VALID,24.4345,VALID,122,VALID,0,
2014-12-19, 01:03:04,VALID,1010.41,VALID,0,INVALID,134.465,VALID,0,VALID,24.454,VALID,122,VALID,0,
2014-12-19, 01:04:04,VALID,1010.4,VALID,0,INVALID,134.412,VALID,0.112112,VALID,24.4345,VALID,122,VALID,0,
2014-12-19, 01:05:04,VALID,1010.38,VALID,0,INVALID,134.183,VALID,0,VALID,24.4345,VALID,122,VALID,0,
2014-12-19, 01:06:04,VALID,1010.34,VALID,0,INVALID,134.297,VALID,0,VALID,24.4345,VALID,122,VALID,0,
2014-12-19, 01:07:04,VALID,1010.35,VALID,0,INVALID,135.006,VALID,0,VALID,24.454,VALID,122,VALID,0,
2014-12-19, 01:08:04,VALID,1010.35,VALID,0,INVALID,134.633,VALID,0,VALID,24.454,VALID,122,VALID,0,
2014-12-19, 01:09:04,VALID,1010.35,VALID,0,INVALID,134.099,VALID,0,VALID,24.454,VALID,122,VALID,0,
2014-12-19, 01:10:04,VALID,1010.35,VALID,0,INVALID,133.504,VALID,0,VALID,24.4345,VALID,122,VALID,0,
2014-12-19, 01:11:04,VALID,1010.36,VALID,0,INVALID,133.359,VALID,0,VALID,24.4345,VALID,122,VALID,0,
2014-12-19, 01:12:04,VALID,1010.35,VALID,0,INVALID,133.077,VALID,0,VALID,24.415,VALID,122,VALID,0,
2014-12-19, 01:13:04,VALID,1010.35,VALID,0,INVALID,132.68,VALID,0,VALID,24.415,VALID,122,VALID,0,
2014-12-19, 01:14:04,VALID,1010.35,VALID,0,INVALID,132.444,VALID,0,VALID,24.3956,VALID,122,VALID,0,
2014-12-19, 01:15:04,VALID,1010.34,VALID,0,INVALID,131.979,VALID,0,VALID,24.3761,VALID,122,VALID,0,
2014-12-19, 01:16:04,VALID,1010.31,VALID,0,INVALID,132.261,VALID,0,VALID,24.3566,VALID,122,VALID,0,
2014-12-19, 01:17:04,VALID,1010.29,VALID,0,INVALID,132.391,VALID,0,VALID,24.3176,VALID,122,VALID,0,
2014-12-19, 01:18:04,VALID,1010.28,VALID,0,INVALID,132.696,VALID,0,VALID,24.3176,VALID,122,VALID,0,
2014-12-19, 01:19:04,VALID,1010.28,VALID,0,INVALID,133.176,VALID,0,VALID,24.2981,VALID,122,VALID,0,
2014-12-19, 01:20:04,VALID,1010.29,VALID,0,INVALID,133.481,VALID,0,VALID,24.2981,VALID,122,VALID,0,
2014-12-19, 01:21:04,VALID,1010.31,VALID,0,INVALID,133.969,VALID,0,VALID,24.2786,VALID,122,VALID,0,
2014-12-19, 01:22:04,VALID,1010.3,VALID,0,INVALID,134.915,VALID,0,VALID,24.2786,VALID,122,VALID,0,
2014-12-19, 01:23:04,VALID,1010.3,VALID,0,INVALID,135.838,VALID,0,VALID,24.3176,VALID,122,VALID,0,
2014-12-19, 01:24:04,VALID,1010.31,VALID,0,INVALID,136.379,VALID,0.112112,VALID,24.3371,VALID,122,VALID,0,
2014-12-19, 01:25:04,VALID,1010.27,VALID,0,INVALID,136.539,VALID,0,VALID,24.3176,VALID,122,VALID,0,
2014-12-19, 01:26:04,VALID,1010.24,VALID,0,INVALID,136.501,VALID,0,VALID,24.3371,VALID,122,VALID,0,
2014-12-19, 01:27:04,VALID,1010.23,VALID,0,INVALID,136.219,VALID,0,VALID,24.2963,VALID,122,VALID,0,
2014-12-19, 01:28:04,VALID,1010.2,VALID,0,INVALID,136.143,VALID,0,VALID,24.3176,VALID,122,VALID,0,
2014-12-19, 01:29:04,VALID,1010.17,VALID,0,INVALID,136.257,VALID,0,VALID,24.3176,VALID,122,VALID,0,
2014-12-19, 01:30:04,VALID,1010.15,VALID,0,INVALID,136.257,VALID,0,VALID,24.3176,VALID,122,VALID,0,
2014-12-19, 01:31:04,VALID,1010.13,VALID,0,INVALID,136.364,VALID,0,VALID,24.3176,VALID,122,VALID,0,
2014-12-19, 01:32:04,VALID,1010.13,VALID,0,INVALID,136.432,VALID,0,VALID,24.3176,VALID,122,VALID,0,
2014-12-19, 01:33:04,VALID,1010.1,VALID,0,INVALID,136.57,VALID,0,VALID,24.2768,VALID,122,VALID,0,
2014-12-19, 01:34:04,VALID,1010.09,VALID,0,INVALID,136.6,VALID,0.112112,VALID,24.2768,VALID,122,VALID,0,
2014-12-19, 01:35:04,VALID,1010.08,VALID,0,INVALID,136.669,VALID,0,VALID,24.2981,VALID,122,VALID,0,
2014-12-19, 01:36:04,VALID,1010.09,VALID,0,INVALID,136.722,VALID,0,VALID,24.2786,VALID,122,VALID,0,
2014-12-19, 01:37:04,VALID,1010.1,VALID,0,INVALID,136.92,VALID,0,VALID,24.2768,VALID,122,VALID,0,
2014-12-19, 01:38:04,VALID,1010.12,VALID,0,INVALID,137.142,VALID,0.112112,VALID,24.2573,VALID,122,VALID,0,
2014-12-19, 01:39:04,VALID,1010.13,VALID,0,INVALID,137.02,VALID,0,VALID,24.2786,VALID,122,VALID,0,
2014-12-19, 01:40:04,VALID,1010.16,VALID,0,INVALID,136.608,VALID,0,VALID,24.2591,VALID,122,VALID,0,
2014-12-19, 01:41:04,VALID,1010.16,VALID,0,INVALID,136.265,VALID,0,VALID,24.2183,VALID,122,VALID,0,
2014-12-19, 01:42:04,VALID,1010.16,VALID,0,INVALID,136.204,VALID,0,VALID,24.2007,VALID,122,VALID,0,
2014-12-19, 01:43:04,VALID,1010.17,VALID,0,INVALID,136.425,VALID,0,VALID,24.2007,VALID,122,VALID,0,
2014-12-19, 01:44:04,VALID,1010.13,VALID,0,INVALID,137.02,VALID,0,VALID,24.2007,VALID,122,VALID,0,
2014-12-19, 01:45:04,VALID,1010.12,VALID,0,INVALID,137.271,VALID,0,VALID,24.1812,VALID,122,VALID,0,
2014-12-19, 01:46:04,VALID,1010.14,VALID,0,INVALID,137.081,VALID,0,VALID,24.1422,VALID,122,VALID,0,
2014-12-19, 01:47:04,VALID,1010.11,VALID,0,INVALID,136.699,VALID,0,VALID,24.1227,VALID,122,VALID,0,
2014-12-19, 01:48:04,VALID,1010.11,VALID,0,INVALID,136.936,VALID,0,VALID,24.1227,VALID,122,VALID,0,
2014-12-19, 01:49:04,VALID,1010.1,VALID,0,INVALID,137.294,VALID,0,VALID,24.1227,VALID,122,VALID,0,
2014-12-19, 01:50:04,VALID,1010.1,VALID,0,INVALID,137.736,VALID,0,VALID,24.1227,VALID,122,VALID,0,
2014-12-19, 01:51:04,VALID,1010.08,VALID,0,INVALID,138.27,VALID,0,VALID,24.1617,VALID,122,VALID,0,
2014-12-19, 01:52:04,VALID,1010.06,VALID,0,INVALID,138.484,VALID,0,VALID,24.1812,VALID,122,VALID,0,
2014-12-19, 01:53:04,VALID,1010.06,VALID,0,INVALID,138.522,VALID,0,VALID,24.1812,VALID,122,VALID,0,
2014-12-19, 01:54:04,VALID,1010.06,VALID,0,INVALID,138.598,VALID,0,VALID,24.1812,VALID,122,VALID,0,
2014-12-19, 01:55:04,VALID,1010.03,VALID,0,INVALID,138.651,VALID,0,VALID,24.2007,VALID,122,VALID,0,
2014-12-19, 01:56:04,VALID,1010.02,VALID,0,INVALID,138.72,VALID,0,VALID,24.1812,VALID,122,VALID,0,
2014-12-19, 01:57:04,VALID,1009.99,VALID,0,INVALID,138.758,VALID,0,VALID,24.1812,VALID,122,VALID,0,
2014-12-19, 01:58:04,VALID,1009.99,VALID,0,INVALID,138.819,VALID,0,VALID,24.2007,VALID,122,VALID,0,
2014-12-19, 01:59:04,VALID,1009.99,VALID,0,INVALID,138.888,VALID,0,VALID,24.1812,VALID,122,VALID,0,
2014-12-19, 02:00:04,VALID,1009.96,VALID,0,INVALID,138.888,VALID,0,VALID,24.1617,VALID,122,VALID,0,
2014-12-19, 02:01:04,VALID,1009.91,VALID,0,INVALID,138.918,VALID,0,VALID,24.1812,VALID,122,VALID,0,
2014-12-19, 02:02:04,VALID,1009.88,VALID,0,INVALID,138.956,VALID,0,VALID,24.1617,VALID,122,VALID,0,
2014-12-19, 02:03:04,VALID,1009.89,VALID,0,INVALID,139.033,VALID,0,VALID,24.1812,VALID,122,VALID,0,
2014-12-19, 02:04:04,VALID,1009.87,VALID,0,INVALID,139.086,VALID,0,VALID,24.2007,VALID,122,VALID,0,
2014-12-19, 02:05:04,VALID,1009.83,VALID,0,INVALID,139.063,VALID,0,VALID,24.1617,VALID,122,VALID,0,
2014-12-19, 02:06:04,VALID,1009.85,VALID,0,INVALID,139.094,VALID,0,VALID,24.1617,VALID,122,VALID,0,
2014-12-19, 02:07:04,VALID,1009.87,VALID,0,INVALID,139.139,VALID,0,VALID,24.1617,VALID,122,VALID,0,
2014-12-19, 02:08:04,VALID,1009.81,VALID,0,INVALID,139.17,VALID,0,VALID,24.1812,VALID,122,VALID,0,
2014-12-19, 02:09:04,VALID,1009.83,VALID,0,INVALID,139.155,VALID,0,VALID,24.1812,VALID,122,VALID,0,
2014-12-19, 02:10:04,VALID,1009.79,VALID,0,INVALID,139.216,VALID,0,VALID,24.1812,VALID,122,VALID,0,
2014-12-19, 02:11:04,VALID,1009.79,VALID,0,INVALID,139.246,VALID,0,VALID,24.2202,VALID,122,VALID,0,
2014-12-19, 02:12:04,VALID,1009.78,VALID,0,INVALID,139.162,VALID,0,VALID,24.2396,VALID,122,VALID,0,
2014-12-19, 02:13:04,VALID,1009.74,VALID,0,INVALID,139.178,VALID,0,VALID,24.2202,VALID,122,VALID,0,
2014-12-19, 02:14:04,VALID,1009.68,VALID,0,INVALID,139.178,VALID,0,VALID,24.2202,VALID,122,VALID,0,
2014-12-19, 02:15:04,VALID,1009.7,VALID,0,INVALID,139.185,VALID,0,VALID,24.2396,VALID,122,VALID,0,
2014-12-19, 02:16:04,VALID,1009.68,VALID,0,INVALID,139.178,VALID,0,VALID,24.2396,VALID,122,VALID,0,
2014-12-19, 02:17:04,VALID,1009.69,VALID,0,INVALID,139.231,VALID,0,VALID,24.261,VALID,122,VALID,0,
2014-12-19, 02:18:04,VALID,1009.68,VALID,0,INVALID,139.307,VALID,0,VALID,24.2202,VALID,122,VALID,0,
2014-12-19, 02:19:04,VALID,1009.68,VALID,0,INVALID,139.353,VALID,0,VALID,24.2007,VALID,122,VALID,0,
2014-12-19, 02:20:04,VALID,1009.66,VALID,0,INVALID,139.384,VALID,0,VALID,24.2007,VALID,122,VALID,0,
2014-12-19, 02:21:04,VALID,1009.68,VALID,0,INVALID,139.445,VALID,0,VALID,24.1812,VALID,122,VALID,0,
2014-12-19, 02:22:04,VALID,1009.66,VALID,0,INVALID,139.498,VALID,0,VALID,24.1617,VALID,122,VALID,0,
2014-12-19, 02:23:04,VALID,1009.68,VALID,0,INVALID,139.528,VALID,0,VALID,24.1404,VALID,122,VALID,0,
2014-12-19, 02:24:04,VALID,1009.69,VALID,0,INVALID,139.559,VALID,0,VALID,24.1422,VALID,122,VALID,0,
2014-12-19, 02:25:04,VALID,1009.73,VALID,0,INVALID,139.582,VALID,0,VALID,24.1422,VALID,122,VALID,0,
2014-12-19, 02:26:04,VALID,1009.74,VALID,0,INVALID,139.597,VALID,0,VALID,24.1014,VALID,122,VALID,0,
2014-12-19, 02:27:04,VALID,1009.8,VALID,0,INVALID,139.643,VALID,0,VALID,24.1227,VALID,122,VALID,0,
2014-12-19, 02:28:04,VALID,1009.79,VALID,0,INVALID,139.643,VALID,0,VALID,24.1032,VALID,122,VALID,0,
2014-12-19, 02:29:04,VALID,1009.8,VALID,0,INVALID,139.658,VALID,0,VALID,24.1032,VALID,122,VALID,0,
2014-12-19, 02:30:04,VALID,1009.77,VALID,0,INVALID,139.681,VALID,0,VALID,24.0837,VALID,122,VALID,0,
2014-12-19, 02:31:04,VALID,1009.76,VALID,0,INVALID,139.673,VALID,0,VALID,24.0837,VALID,122,VALID,0,
2014-12-19, 02:32:04,VALID,1009.76,VALID,0,INVALID,139.65,VALID,0,VALID,24.0643,VALID,122,VALID,0,
2014-12-19, 02:33:04,VALID,1009.76,VALID,0,INVALID,139.673,VALID,0,VALID,24.0643,VALID,122,VALID,0,
2014-12-19, 02:34:04,VALID,1009.74,VALID,0,INVALID,139.681,VALID,0,VALID,24.0643,VALID,122,VALID,0,
2014-12-19, 02:35:04,VALID,1009.71,VALID,0,INVALID,139.711,VALID,0,VALID,24.0643,VALID,122,VALID,0,
2014-12-19, 02:36:04,VALID,1009.74,VALID,0,INVALID,139.689,VALID,0,VALID,24.0837,VALID,122,VALID,0,
2014-12-19, 02:37:04,VALID,1009.73,VALID,0,INVALID,139.605,VALID,0,VALID,24.1032,VALID,122,VALID,0,
2014-12-19, 02:38:04,VALID,1009.75,VALID,0,INVALID,139.567,VALID,0,VALID,24.1227,VALID,122,VALID,0,
2014-12-19, 02:39:04,VALID,1009.77,VALID,0,INVALID,139.559,VALID,0,VALID,24.144,VALID,122,VALID,0,
2014-12-19, 02:40:04,VALID,1009.78,VALID,0,INVALID,139.513,VALID,0,VALID,24.1422,VALID,122,VALID,0,
2014-12-19, 02:41:04,VALID,1009.83,VALID,0,INVALID,139.528,VALID,0,VALID,24.1422,VALID,122,VALID,0,
2014-12-19, 02:42:04,VALID,1009.83,VALID,0,INVALID,139.506,VALID,0,VALID,24.1617,VALID,122,VALID,0,
2014-12-19, 02:43:04,VALID,1009.86,VALID,0,INVALID,139.528,VALID,0,VALID,24.1617,VALID,122,VALID,0,
2014-12-19, 02:44:04,VALID,1009.83,VALID,0,INVALID,139.506,VALID,0,VALID,24.1617,VALID,122,VALID,0,
2014-12-19, 02:45:04,VALID,1009.86,VALID,0,INVALID,139.582,VALID,0,VALID,24.1812,VALID,122,VALID,0,
2014-12-19, 02:46:04,VALID,1009.86,VALID,0,INVALID,139.589,VALID,0,VALID,24.183,VALID,122,VALID,0,
2014-12-19, 02:47:04,VALID,1009.85,VALID,0,INVALID,139.658,VALID,0,VALID,24.1617,VALID,122,VALID,0,
2014-12-19, 02:48:04,VALID,1009.82,VALID,0,INVALID,139.65,VALID,0,VALID,24.1617,VALID,122,VALID,0,
2014-12-19, 02:49:04,VALID,1009.79,VALID,0,INVALID,139.765,VALID,0,VALID,24.1635,VALID,122,VALID,0,
2014-12-19, 02:50:04,VALID,1009.73,VALID,0,INVALID,139.795,VALID,0,VALID,24.144,VALID,122,VALID,0,
2014-12-19, 02:51:04,VALID,1009.73,VALID,0,INVALID,139.78,VALID,0,VALID,24.144,VALID,122,VALID,0,
2014-12-19, 02:52:04,VALID,1009.72,VALID,0,INVALID,139.849,VALID,0,VALID,24.1245,VALID,122,VALID,0,
2014-12-19, 02:53:04,VALID,1009.69,VALID,0,INVALID,139.864,VALID,0,VALID,24.1227,VALID,122,VALID,0,
2014-12-19, 02:54:04,VALID,1009.68,VALID,0,INVALID,139.887,VALID,0,VALID,24.1032,VALID,122,VALID,0,
2014-12-19, 02:55:04,VALID,1009.65,VALID,0,INVALID,139.856,VALID,0,VALID,24.1227,VALID,122,VALID,0,
2014-12-19, 02:56:04,VALID,1009.64,VALID,0,INVALID,139.872,VALID,0,VALID,24.1032,VALID,122,VALID,0,
2014-12-19, 02:57:04,VALID,1009.65,VALID,0,INVALID,139.91,VALID,0,VALID,24.1032,VALID,122,VALID,0,
2014-12-19, 02:58:04,VALID,1009.66,VALID,0,INVALID,139.955,VALID,0,VALID,24.0819,VALID,122,VALID,0,
2014-12-19, 02:59:04,VALID,1009.68,VALID,0,INVALID,139.94,VALID,0,VALID,24.1032,VALID,122,VALID,0,
2014-12-19, 03:00:04,VALID,1009.69,VALID,0,INVALID,139.925,VALID,0,VALID,24.1227,VALID,122,VALID,0,
2014-12-19, 03:01:04,VALID,1009.7,VALID,0,INVALID,139.872,VALID,0,VALID,24.1227,VALID,122,VALID,0,
2014-12-19, 03:02:04,VALID,1009.72,VALID,0,INVALID,139.856,VALID,0,VALID,24.1227,VALID,122,VALID,0,
2014-12-19, 03:03:04,VALID,1009.73,VALID,0,INVALID,139.833,VALID,0,VALID,24.144,VALID,122,VALID,0,
2014-12-19, 03:04:04,VALID,1009.75,VALID,0,INVALID,139.757,VALID,0,VALID,24.1422,VALID,122,VALID,0,
2014-12-19, 03:05:04,VALID,1009.8,VALID,0,INVALID,139.673,VALID,0,VALID,24.1812,VALID,122,VALID,0,
2014-12-19, 03:06:04,VALID,1009.81,VALID,0,INVALID,139.513,VALID,0,VALID,24.2202,VALID,186,VALID,0,
2014-12-19, 03:07:04,VALID,1009.81,VALID,0,INVALID,139.475,VALID,0,VALID,24.2591,VALID,186,VALID,0,
2014-12-19, 03:08:04,VALID,1009.81,VALID,0,INVALID,139.429,VALID,0,VALID,24.2981,VALID,186,VALID,0,
2014-12-19, 03:09:04,VALID,1009.81,VALID,0,INVALID,139.353,VALID,0,VALID,24.3176,VALID,186,VALID,0,
2014-12-19, 03:10:04,VALID,1009.76,VALID,0,INVALID,139.338,VALID,0,VALID,24.3761,VALID,186,VALID,0,
2014-12-19, 03:11:04,VALID,1009.74,VALID,0,INVALID,139.3,VALID,0,VALID,24.415,VALID,186,VALID,0,
2014-12-19, 03:12:04,VALID,1009.72,VALID,0,INVALID,139.414,VALID,0,VALID,24.4345,VALID,186,VALID,0,
2014-12-19, 03:13:04,VALID,1009.77,VALID,0,INVALID,139.521,VALID,0,VALID,24.4735,VALID,186,VALID,0,
2014-12-19, 03:14:04,VALID,1009.75,VALID,0,INVALID,139.65,VALID,0,VALID,24.5125,VALID,186,VALID,0,
2014-12-19, 03:15:04,VALID,1009.74,VALID,0,INVALID,139.864,VALID,0,VALID,24.532,VALID,186,VALID,0,
2014-12-19, 03:16:04,VALID,1009.74,VALID,0,INVALID,139.994,VALID,0,VALID,24.5515,VALID,186,VALID,0,
2014-12-19, 03:17:04,VALID,1009.73,VALID,0,INVALID,140.07,VALID,0,VALID,24.5905,VALID,186,VALID,0,
2014-12-19, 03:18:04,VALID,1009.7,VALID,0,INVALID,140.024,VALID,0,VALID,24.5905,VALID,186,VALID,0,
2014-12-19, 03:19:04,VALID,1009.67,VALID,0,INVALID,139.917,VALID,0,VALID,24.5905,VALID,186,VALID,0,
2014-12-19, 03:20:04,VALID,1009.65,VALID,0,INVALID,139.856,VALID,0,VALID,24.6313,VALID,186,VALID,0,
2014-12-19, 03:21:05,VALID,1009.66,VALID,0,INVALID,139.849,VALID,0,VALID,24.6294,VALID,186,VALID,0,
2014-12-19, 03:22:05,VALID,1009.64,VALID,0,INVALID,139.574,VALID,0,VALID,24.6489,VALID,186,VALID,0,
2014-12-19, 03:23:05,VALID,1009.63,VALID,0,INVALID,139.01,VALID,0,VALID,24.6898,VALID,186,VALID,0,
2014-12-19, 03:24:05,VALID,1009.61,VALID,0,INVALID,138.026,VALID,0,VALID,24.6684,VALID,186,VALID,0,
2014-12-19, 03:25:05,VALID,1009.57,VALID,0,INVALID,137.744,VALID,0,VALID,24.6684,VALID,186,VALID,0,
2014-12-19, 03:26:05,VALID,1009.54,VALID,0,INVALID,137.561,VALID,0,VALID,24.6898,VALID,186,VALID,0,
2014-12-19, 03:27:05,VALID,1009.54,VALID,0,INVALID,136.837,VALID,0,VALID,24.6489,VALID,186,VALID,0,
2014-12-19, 03:28:05,VALID,1009.54,VALID,0,INVALID,136.531,VALID,0,VALID,24.6489,VALID,186,VALID,0,
2014-12-19, 03:29:05,VALID,1009.55,VALID,0,INVALID,135.853,VALID,0,VALID,24.6294,VALID,186,VALID,0,
2014-12-19, 03:30:05,VALID,1009.59,VALID,0,INVALID,135.799,VALID,0,VALID,24.6118,VALID,186,VALID,0,
2014-12-19, 03:31:05,VALID,1009.64,VALID,0,INVALID,135.761,VALID,0,VALID,24.5923,VALID,186,VALID,0,
2014-12-19, 03:32:05,VALID,1009.63,VALID,0,INVALID,136.043,VALID,0,VALID,24.5338,VALID,186,VALID,0,
2014-12-19, 03:33:05,VALID,1009.65,VALID,0,INVALID,136.669,VALID,0,VALID,24.4735,VALID,186,VALID,0,
2014-12-19, 03:34:05,VALID,1009.68,VALID,0,INVALID,137.332,VALID,0,VALID,24.4364,VALID,186,VALID,0,
2014-12-19, 03:35:05,VALID,1009.68,VALID,0,INVALID,137.858,VALID,0,VALID,24.3761,VALID,186,VALID,0,
2014-12-19, 03:36:05,VALID,1009.71,VALID,0,INVALID,138.057,VALID,0,VALID,24.3371,VALID,186,VALID,0,
2014-12-19, 03:37:05,VALID,1009.71,VALID,0,INVALID,138.4,VALID,0,VALID,24.2786,VALID,186,VALID,0,
2014-12-19, 03:38:05,VALID,1009.69,VALID,0,INVALID,138.758,VALID,0,VALID,24.2805,VALID,186,VALID,0,
2014-12-19, 03:39:05,VALID,1009.7,VALID,0,INVALID,138.956,VALID,0,VALID,24.2415,VALID,186,VALID,0,
2014-12-19, 03:40:05,VALID,1009.68,VALID,0,INVALID,139.307,VALID,0,VALID,24.222,VALID,186,VALID,0,
2014-12-19, 03:41:05,VALID,1009.66,VALID,0,INVALID,139.788,VALID,0,VALID,24.2025,VALID,186,VALID,0,
2014-12-19, 03:42:05,VALID,1009.66,VALID,0,INVALID,139.971,VALID,0,VALID,24.1617,VALID,186,VALID,0,
2014-12-19, 03:43:05,VALID,1009.69,VALID,0,INVALID,140.161,VALID,0,VALID,24.1617,VALID,186,VALID,0,
2014-12-19, 03:44:05,VALID,1009.69,VALID,0,INVALID,140.093,VALID,0,VALID,24.1422,VALID,186,VALID,0,
2014-12-19, 03:45:05,VALID,1009.67,VALID,0,INVALID,140.047,VALID,0,VALID,24.1032,VALID,186,VALID,0,
2014-12-19, 03:46:05,VALID,1009.67,VALID,0,INVALID,140.039,VALID,0,VALID,24.0837,VALID,186,VALID,0,
2014-12-19, 03:47:05,VALID,1009.64,VALID,0,INVALID,140.184,VALID,0,VALID,24.0448,VALID,186,VALID,0,
2014-12-19, 03:48:05,VALID,1009.61,VALID,0,INVALID,140.177,VALID,0,VALID,24.0643,VALID,186,VALID,0,
2014-12-19, 03:49:05,VALID,1009.61,VALID,0,INVALID,140.192,VALID,0,VALID,24.0448,VALID,186,VALID,0,
2014-12-19, 03:50:05,VALID,1009.57,VALID,0,INVALID,140.093,VALID,0,VALID,24.0661,VALID,186,VALID,0,
2014-12-19, 03:51:05,VALID,1009.56,VALID,0,INVALID,140.024,VALID,0,VALID,24.0448,VALID,186,VALID,0,
2014-12-19, 03:52:05,VALID,1009.54,VALID,0,INVALID,139.978,VALID,0,VALID,24.0643,VALID,186,VALID,0,
2014-12-19, 03:53:05,VALID,1009.58,VALID,0,INVALID,139.894,VALID,0,VALID,24.0643,VALID,186,VALID,0,
2014-12-19, 03:54:05,VALID,1009.58,VALID,0,INVALID,139.811,VALID,0,VALID,24.0643,VALID,186,VALID,0,